Change the Weather History Date:

Friday, September 7, 2012

  Actual Average Record
Temperature  
Mean Temperature 70 °F -  
Max Temperature 77 °F 70 °F 84 °F (1998)
Min Temperature 62 °F 55 °F 42 °F (2000)
Cooling Degree Days 4    
Growing Degree Days 20 (Base 50)    
Moisture  
Dew Point 62 °F    
Average Humidity 77    
Maximum Humidity 100    
Minimum Humidity 53    
Precipitation  
Precipitation 0.00 in - - ()
Sea Level Pressure  
Sea Level Pressure 30.14 in    
Wind  
Wind Speed 6 mph (SSW)    
Max Wind Speed 9 mph    
Max Gust Speed -    
Visibility 9 miles    
Events      
Averages and records for this station are not official NWS values.
T = Trace of Precipitation, MM = Missing Value Source: NWS Daily Summary

Daily Weather History Graph

Daily Weather History Graph

Search for Another Location

Airport or City:

Trip Planner

Search our weather history database for the weather conditions in past years. The results will help you decide how hot, cold, wet, or windy it might be!

Date:

Astronomy

Sep. 07, 2012 Rise Set
Actual Time 6:54 AM EDT 7:38 PM EDT
Civil Twilight 6:28 AM EDT 8:05 PM EDT
Nautical Twilight 5:56 AM EDT 8:36 PM EDT
Astronomical Twilight 5:24 AM EDT 9:09 PM EDT
Moon 11:40 PM EDT (9/7) 1:38 PM EDT (9/7)
Length of Visible Light 13h 37m
Length of Day
12h 44m
Waning Gibbous, 58% of the Moon is Illuminated
Sep 7
Waning Gibbous
Sep 8
Last Quarter
Sep 15
New
Sep 22
First Quarter
Sep 29
Full

Hourly Weather History & Observations

Time (EDT) Temp. Dew Point Humidity Pressure Visibility Wind Dir Wind Speed Gust Speed Precip Events Conditions
12:22 AM 64.4 °F 62.6 °F 94% 30.16 in 10.0 mi West 6.9 mph - N/A   Clear
1:01 AM 64.4 °F 62.6 °F 94% 30.15 in 10.0 mi West 5.8 mph - N/A   Clear
2:40 AM 64.4 °F 62.6 °F 94% 30.14 in 10.0 mi WNW 6.9 mph - N/A   Clear
3:24 AM 64.4 °F 62.6 °F 94% 30.14 in 7.0 mi WNW 6.9 mph - N/A   Clear
5:38 AM 62.6 °F 62.6 °F 100% 30.13 in 5.0 mi NW 9.2 mph - N/A   Scattered Clouds
6:01 AM 62.6 °F 62.6 °F 100% 30.13 in 4.0 mi NW 9.2 mph - N/A   Clear
6:38 AM 62.6 °F 62.6 °F 100% 30.14 in 5.0 mi NW 8.1 mph - N/A   Clear
7:00 AM 62.6 °F 62.6 °F 100% 30.15 in 5.0 mi NW 8.1 mph - N/A   Clear
8:04 AM 64.4 °F 62.6 °F 94% 30.16 in 4.0 mi NW 5.8 mph - N/A   Clear
8:38 AM 66.2 °F 62.6 °F 88% 30.16 in 10.0 mi Calm Calm - N/A   Clear
9:00 AM 66.2 °F 62.6 °F 88% 30.17 in 10.0 mi NW 4.6 mph - N/A   Clear
9:24 AM 68.0 °F 62.6 °F 83% 30.17 in 10.0 mi Calm Calm - N/A   Clear
9:40 AM 69.8 °F 60.8 °F 73% 30.18 in 10.0 mi Calm Calm - N/A   Clear
9:58 AM 69.8 °F 60.8 °F 73% 30.18 in 10.0 mi Calm Calm - N/A   Clear
11:27 AM 71.6 °F 64.4 °F 78% 30.18 in 10.0 mi Calm Calm - N/A   Clear
11:43 AM 73.4 °F 66.2 °F 78% 30.18 in 10.0 mi Calm Calm - N/A   Scattered Clouds
12:04 PM 73.4 °F 66.2 °F 78% 30.18 in 10.0 mi SSE 5.8 mph - N/A   Mostly Cloudy
12:21 PM 73.4 °F 64.4 °F 73% 30.17 in 10.0 mi ESE 3.5 mph - N/A   Mostly Cloudy
12:42 PM 73.4 °F 64.4 °F 73% 30.17 in 10.0 mi SE 5.8 mph - N/A   Clear
1:03 PM 73.4 °F 64.4 °F 73% 30.16 in 10.0 mi SSE 5.8 mph - N/A   Clear
1:18 PM 73.4 °F 62.6 °F 69% 30.16 in 10.0 mi ESE 4.6 mph - N/A   Clear
2:01 PM 75.2 °F 57.2 °F 53% 30.15 in 10.0 mi SE 4.6 mph - N/A   Clear
2:22 PM 75.2 °F 57.2 °F 53% 30.15 in 10.0 mi Calm Calm - N/A   Clear
2:45 PM 75.2 °F 57.2 °F 53% 30.14 in 10.0 mi West 3.5 mph - N/A   Clear
2:58 PM 77.0 °F 60.8 °F 57% 30.13 in 10.0 mi SSE 6.9 mph - N/A   Clear
3:18 PM 75.2 °F 60.8 °F 61% 30.13 in 10.0 mi SSE 3.5 mph - N/A   Clear
3:43 PM 77.0 °F 62.6 °F 61% 30.12 in 10.0 mi SSE 6.9 mph - N/A   Clear
4:59 PM 75.2 °F 62.6 °F 65% 30.11 in 10.0 mi SSE 6.9 mph - N/A   Clear
5:18 PM 75.2 °F 62.6 °F 65% 30.11 in 10.0 mi SSE 5.8 mph - N/A   Clear
6:01 PM 73.4 °F 62.6 °F 69% 30.10 in 10.0 mi SSE 5.8 mph - N/A   Clear
6:42 PM 73.4 °F 62.6 °F 69% 30.09 in 10.0 mi South 6.9 mph - N/A   Clear
7:24 PM 71.6 °F 62.6 °F 73% 30.09 in 10.0 mi South 6.9 mph - N/A   Clear
7:38 PM 69.8 °F 62.6 °F 78% 30.09 in 10.0 mi South 8.1 mph - N/A   Clear
8:18 PM 69.8 °F 62.6 °F 78% 30.08 in 10.0 mi South 8.1 mph - N/A   Clear
8:40 PM 69.8 °F 62.6 °F 78% 30.08 in 10.0 mi South 8.1 mph - N/A   Clear